Location: Martley
(52.2333°N, 2.3667°W)
Time: 18:15:13
(UTC+00:00)

Okean 1 - Pass Details

Date: 11 December 2019
Orbit: 539 x 555 km, 82.5° (Epoch: 20 January)

Event Time Altitude Azimuth Distance (km) Brightness Sun altitude
Exits shadow 06:21:51 25° 262° (W) 1,127 4.4 -15.1°
Drops below altitude 10° 06:24:47 10° 215° (SW) 1,804 5.8 -14.7°
Sets 06:27:11 0° 202° (SSW) 2,692 6.8 -14.4°
